Hlavní strana
METAR-TAF:

METAR-TAF

Letiště :

Tartu, Estonsko

zeměpisná šířka: 58-18N, zeměpisná délka: 026-44E, výška: 59 m

Aktuální stav počasí

Zpráva byla vytvořena před 23 minutami, v 18:50 UTC
Severozápadní vítr 4 kt
Teplota 4°C
Vlhkost vzduchu 81%
Tlak 1020 hPa
Viditelnost 10 km a více

METAR: EETU 131850Z AUTO 31004KT 9999 BKN043/// OVC062/// 04/01 Q1020

Čas: 22:13 (19:13 UTC)


TAF: chybějící

Stav a předpovědi počasí z více než 4 000 letišť (zprávy METAR a TAF).

Červené a žluté tečky na mapě představují dostupné meteorologické stanice.

Když kurzor umístíte na tečku, zobrazí se název stanice.

Pak kliknutím zobrazíte stav a předpověď počasí.

Chcete-li změnit mapu, kliknutím na zelené tlačítko se znaménkem +mapu přiblížíte, kliknutím na zelené tlačítko se znaménkem – mapu oddálíte a kliknutím na zelené šipky přejdete na sousední mapy.


METAR-TAF: